Regional Weather Roundup
Issued by NWS

Home | Current Version | Previous Version | Text Only | Print | Product List | Glossary Off
Versions: 1 2 3 4 5 6 7 8 9 10 11 12 13 14 15 16 17 18 19 20 21 22 23 24 25 26 27 28 29 30 31 32 33 34 35 36 37 38 39 40 41 42 43 44 45 46 47 48 49 50

307
ASUS44 KJAN 201103
RWRMS

MISSISSIPPI HOURLY WEATHER ROUNDUP
NATIONAL WEATHER SERVICE JACKSON MS
600 AM CDT WED AUG 20 2014

NOTE: "FAIR: INDICATES FEW OR NO CLOUDS BELOW 12,000 FEET WITH NO
SIGNIFICANT WEATHER AND/OR OBSTRUCTIONS TO VISIBILITY.

MSZ001>002-007>008-010>013-018>021-025>028-034>036-201200-
NORTHWEST MISSISSIPPI

CITY           SKY/WX    TMP DP  RH WIND       PRES   REMARKS
CLARKSDALE     FAIR      73  73 100 CALM      29.98R
CLEVELAND      FAIR      73  73 100 SW3       29.98R
GREENWOOD      CLEAR     73  71  93 S5        29.98R
GREENVILLE       N/A    N/A N/A N/A MISG      29.99R
GRENADA        FAIR      72  70  94 CALM      29.98S
OLIVE BRANCH   CLEAR     73 N/A N/A S7        29.96R
OXFORD         FAIR      73  70  88 SW3       30.00R
TUNICA         SUNNY     72  72 100 S3        29.97R
$$

MSZ003>006-009-014>017-022>024-029>033-037>039-201200-
NORTHEAST MISSISSIPPI

CITY           SKY/WX    TMP DP  RH WIND       PRES   REMARKS
BELMONT        FAIR      74  74  98 SW3       30.00R
COLUMBUS AFB   CLEAR     73  70  91 SE2       29.99R
CORINTH        FAIR      75  72  88 S5        29.96R
GOLDN TRIANGLE CLEAR     72  66  83 SW5       30.00R
STARKVILLE     FAIR      70  70 100 CALM      29.99R
TUPELO         CLEAR     76  73  91 W3        29.98R
$$

MSZ040-058-201200-
CENTRAL MISSISSIPPI

CITY           SKY/WX    TMP DP  RH WIND       PRES   REMARKS
JACKSON INTL   PTCLDY    73  71  93 SW3       30.02R
JACKSON HAWKNS CLEAR     75  71  87 W3        30.02R
MERIDIAN KEY   NOT AVBL
MERIDIAN NAS   CLEAR     72  69  90 SW3       30.01R
RAYMOND        FAIR      72  66  83 CALM      30.01R HAZE
VICKSBURG      MOCLDY    73  71  93 CALM      30.01R
$$

MSZ059>079-201200-
SOUTH MISSISSIPPI

CITY           SKY/WX    TMP DP  RH WIND       PRES   REMARKS
BROOKHAVEN     FAIR      73  72  94 CALM      30.04R FOG
COLUMBIA       FAIR      72  72 100 MISG      30.02R FOG
HATTIESBURG    MOCLDY    77  73  87 SW3       30.03R
MCCOMB         MOCLDY    73  70  90 CALM      30.03R
NATCHEZ        MOCLDY    73  70  88 S5        30.02R
PINE BELT      CLOUDY    73  70  88 SW3       30.04R
$$

MSZ080>082-201200-
COASTAL MISSISSIPPI

CITY           SKY/WX    TMP DP  RH WIND       PRES   REMARKS
BILOXI         PTCLDY    80  77  89 NW1       30.01R
PASCAGOULA     CLEAR     75  74  96 CALM      30.02R FOG
GULFPORT       PTCLDY    77  75  93 CALM      30.01R
$$



USA.gov is the U.S. government's official web portal to all federal, state and local government web resources and services.